Location: Haskovo
(41.9227°N, 25.5707°E)
Time: 21:16:05
(UTC+03:00)

ISS - Pass Details

Date: 27 May 2025
Orbit: 415 x 417 km, 51.6° (Epoch: 16 June)

Event Time Altitude Azimuth Distance (km) Brightness Sun altitude
Rises 21:43:32 0° 299° (WNW) 2,359 2.0 -10.0°
Reaches altitude 10° 21:45:44 10° 291° (WNW) 1,492 0.3 -10.3°
Maximum altitude 21:48:50 36° 222° (SW) 669 -2.7 -10.8°
Enters shadow 21:51:13 15° 159° (SSE) 1,216 -2.0 -11.1°
